[Date Prev][Date Next][Thread Prev][Thread Next] - [Date Index][Thread Index][Author Index]
2 Line ISS Keps 6-27
- Subject: [sarex] 2 Line ISS Keps 6-27
- From: "Dave Larsen PhD" <doc@xxxxxxxxxxx>
- Date: Sun, 27 Jun 2004 03:53:14 -0700
ISS
1 25544U 98067A 04179.21482285 .00015206 00000-0 13174-3 0 830
2 25544 51.6323 274.6096 0005494 293.4105 154.8952 15.69364225319899
----
Via the sarex mailing list at AMSAT.ORG courtesy of AMSAT-NA.
To unsubscribe, send "unsubscribe sarex" to Majordomo@amsat.org
AMSAT Home